Dewpoint
-28 -28 -28 -27 -26 -24 -22 -19 -14 -12 -12 -14 -21 -22 -24 -25 -26 -26 -28 -32 -32 -29 -13 -4 2 4 8 10 10 11 10 10 9 9 9 9 8 7
-28 -28 -27 -26 -25 -23 -21 -20 -18 -14 -12 -13 -16 -22 -22 -21 -23 -23 -23 -23 -28 -31 -30 -21 -12 -2 4 8 9 10 10 10 9 10 9 9 9 8
-27 -27 -28 -26 -26 -23 -20 -19 -18 -17 -13 -13 -13 -15 -20 -21 -20 -21 -22 -22 -23 -26 -29 -30 -27 -18 -5 4 5 8 9 9 10 10 9 9 9 9
-27 -27 -27 -26 -26 -23 -20 -19 -17 -16 -14 -13 -13 -14 -14 -18 -19 -17 -19 -20 -20 -21 -24 -27 -30 -26 -21 -8 -3 3 7 9 8 9 9 9 9 9
-26 -26 -26 -23 -25 -23 -19 -17 -16 -15 -13 -12 -12 -11 -11 -13 -17 -17 -15 -16 -18 -18 -17 -22 -24 -28 -29 -19 -16 -4 4 7 9 8 9 9 8 8
-25 -24 -24 -22 -22 -21 -17 -14 -12 -11 -12 -11 -12 -11 -11 -11 -12 -14 -14 -13 -13 -13 -12 -12 -20 -22 -23 -23 -21 -15 -5 4 6 8 9 9 9 8
-21 -19 -19 -15 -13 -12 -12 -11 -12 -12 -12 -11 -11 -11 -10 -10 -10 -11 -11 -10 -10 -10 -9 -8 -8 -10 -13 -18 -19 -19 -13 -2 4 7 7 8 9 8
-14 -14 -14 -15 -18 -14 -12 -12 -12 -11 -11 -11 -11 -11 -11 -10 -11 -10 -12 -13 -11 -12 -13 -13 -13 -14 -16 -17 -19 -23 -22 -11 2 3 7 7 8 9
-15 -16 -18 -19 -15 -17 -20 -14 -13 -13 -12 -12 -11 -12 -12 -14 -14 -12 -11 -13 -14 -16 -13 -12 -14 -15 -16 -18 -18 -22 -23 -18 -5 2 2 4 6 9
-16 -18 -19 -23 -22 -15 -14 -14 -14 -14 -13 -12 -12 -12 -11 -11 -11 -11 -11 -11 -11 -12 -12 -10 -13 -11 -12 -12 -13 -10 -12 -23 -17 -1 2 2 3 7
-17 -16 -17 -16 -15 -13 -13 -13 -12 -12 -11 -12 -12 -11 -11 -11 -10 -10 -9 -9 -10 -10 -9 -9 -9 -8 -7 -8 -11 -14 -12 -12 -20 -15 -1 1 1 5
-16 -17 -15 -14 -14 -13 -12 -12 -12 -14 -14 -14 -13 -14 -13 -12 -11 -10 -10 -10 -10 -10 -14 -12 -12 -11 -11 -13 -12 -8 -4 -4 -3 -2 -2 -0 1 3
-17 -15 -15 -14 -14 -13 -13 -13 -12 -12 -11 -10 -10 -12 -13 -15 -14 -13 -14 -12 -10 -11 -15 -9 -9 -9 -10 -10 -10 -12 -11 -11 -14 -11 -3 -2 -1 2
-15 -17 -18 -15 -14 -13 -12 -12 -11 -11 -11 -12 -12 -13 -14 -14 -13 -11 -11 -11 -10 -10 -13 -11 -10 -9 -9 -9 -9 -9 -9 -9 -8 -16 -18 -12 -4 1
-16 -15 -14 -14 -14 -14 -15 -12 -13 -13 -14 -15 -16 -15 -15 -14 -13 -13 -13 -13 -13 -12 -12 -9 -9 -10 -9 -9 -9 -9 -8 -8 -8 -9 -9 -14 -13 -2
-18 -18 -15 -14 -13 -13 -14 -17 -16 -16 -15 -13 -13 -14 -14 -14 -14 -14 -13 -13 -12 -13 -15 -14 -13 -11 -10 -10 -9 -9 -8 -8 -9 -8 -6 -5 -4 -3
-14 -15 -16 -14 -15 -17 -17 -16 -16 -16 -15 -15 -14 -14 -13 -14 -14 -14 -13 -13 -13 -13 -13 -14 -12 -12 -11 -11 -10 -10 -9 -9 -10 -9 -8 -7 -8 -16
-15 -15 -15 -17 -18 -16 -16 -16 -15 -15 -14 -14 -14 -14 -14 -14 -14 -14 -14 -13 -13 -13 -13 -13 -12 -12 -11 -12 -11 -10 -10 -10 -10 -9 -8 -7 -7 -6
-16 -17 -18 -17 -16 -16 -16 -15 -15 -15 -14 -14 -14 -14 -14 -14 -14 -14 -14 -14 -13 -13 -13 -13 -13 -12 -12 -12 -13 -11 -11 -10 -9 -9 -8 -8 -8 -9
-20 -19 -17 -16 -16 -16 -16 -15 -15 -15 -15 -14 -14 -14 -14 -14 -14 -14 -14 -14 -14 -13 -13 -13 -13 -12 -12 -12 -12 -12 -12 -11 -10 -9 -9 -9 -8 -8
-25 -20 -17 -16 -16 -16 -15 -15 -15 -15 -14 -14 -14 -14 -14 -14 -14 -14 -14 -14 -13 -13 -13 -13 -14 -14 -12 -12 -12 -12 -12 -12 -12 -11 -8 -7 -7 -6
-25 -19 -17 -16 -15 -14 -14 -14 -14 -14 -14 -14 -14 -14 -14 -14 -15 -14 -14 -14 -14 -14 -13 -13 -13 -12 -12 -12 -12 -12 -12 -12 -12 -11 -13 -8 -6 -5
-23 -18 -16 -16 -15 -14 -14 -14 -14 -14 -14 -14 -14 -13 -13 -15 -14 -15 -15 -14 -14 -14 -14 -14 -13 -13 -12 -12 -12 -12 -12 -12 -11 -10 -11 -13 -11 -9
Wind_Speed
24 24 25 26 28 30 33 33 31 30 34 36 47 46 44 44 46 47 48 44 46 44 48 51 46 40 40 46 34 45 51 53 53 53 51 48 46 45
25 26 26 27 28 29 31 33 35 36 36 36 43 46 46 46 45 46 48 48 47 46 44 48 52 55 46 39 50 40 45 52 54 57 55 53 50 49
26 26 27 27 29 30 31 33 36 37 38 42 41 43 44 46 46 45 46 48 49 47 44 45 49 52 60 46 39 51 55 44 55 57 57 57 54 52
27 27 29 27 29 30 31 34 35 36 39 44 41 41 42 41 44 46 45 45 46 47 45 42 46 47 51 57 53 45 45 52 57 50 58 60 59 57
27 28 29 28 31 32 32 33 35 35 35 42 48 42 39 41 42 43 44 44 44 44 45 41 43 48 47 51 54 61 40 48 53 58 56 60 60 60
29 29 30 30 31 33 33 32 34 38 40 41 46 44 39 37 36 45 49 45 44 43 42 44 41 44 44 45 47 53 63 49 46 51 50 59 63 62
30 31 32 31 29 30 33 35 39 40 42 42 44 44 38 35 35 39 44 45 43 38 35 33 28 34 41 44 46 46 57 62 41 45 47 60 62 64
32 33 33 34 35 33 31 32 35 38 41 41 42 42 45 38 39 38 46 52 50 47 51 55 51 55 55 54 52 47 48 56 60 38 49 53 64 68
36 37 37 36 32 35 36 34 35 36 36 39 42 46 47 46 44 44 41 46 51 51 45 50 48 53 51 51 49 49 51 48 62 53 38 38 50 63
37 36 35 36 34 31 32 35 38 39 40 40 42 46 46 45 43 44 46 50 53 54 49 47 48 50 46 45 44 41 43 44 48 65 57 41 37 57
32 32 33 32 31 30 33 37 42 45 43 40 40 42 42 43 43 45 43 37 41 47 36 36 41 40 35 40 50 49 38 34 37 48 73 61 44 50
32 33 29 29 31 32 34 36 42 45 45 47 46 45 46 50 48 44 46 44 44 49 52 39 44 39 48 50 43 27 21 16 17 24 39 41 44 32
32 35 36 31 30 33 33 36 42 44 44 45 41 41 45 49 48 45 47 44 45 51 57 37 41 41 41 45 42 43 45 51 50 41 46 55 50 29
34 37 36 31 31 33 36 37 37 38 39 42 43 46 46 46 43 39 40 40 43 50 50 45 46 42 40 43 43 39 39 40 43 44 46 50 61 46
28 31 32 33 34 34 37 31 35 39 41 44 45 45 44 43 42 41 41 41 44 47 48 47 46 49 46 48 49 43 40 41 42 45 50 45 52 60
30 29 32 32 33 34 34 37 35 36 36 36 39 42 41 41 41 39 39 39 38 46 45 46 48 50 49 49 48 50 46 41 41 38 27 24 24 36
31 33 33 30 31 35 35 35 36 37 37 37 39 40 40 40 41 39 38 38 38 43 47 45 42 42 45 48 47 47 48 47 49 47 44 47 50 48
30 32 27 35 34 33 35 35 36 37 36 38 39 40 41 41 41 40 38 38 40 42 45 44 40 38 41 46 45 49 47 46 47 45 44 42 43 41
30 35 37 33 32 33 35 36 38 37 38 40 41 43 43 42 39 42 41 39 41 42 45 44 40 38 39 44 51 38 46 45 41 40 42 45 46 49
33 32 30 29 31 35 37 38 39 41 42 44 45 45 46 46 45 45 44 42 43 44 46 45 43 42 44 52 46 44 35 39 36 40 45 47 47 44
27 27 27 30 33 36 37 39 40 42 44 45 47 48 49 49 48 48 48 44 44 47 48 49 52 47 48 47 48 54 52 45 44 42 41 41 41 35
27 26 27 30 34 34 37 39 40 43 45 48 50 51 52 53 51 52 51 50 50 52 55 57 53 47 46 49 54 52 50 41 39 41 48 47 38 34
26 25 27 32 33 37 41 41 43 47 50 51 53 55 57 56 57 56 56 56 55 56 57 56 51 48 51 53 52 49 47 44 40 38 43 47 52 52
Wind_Direction
289 291 294 297 299 302 306 309 305 300 304 307 310 309 308 304 302 302 299 290 284 283 281 280 272 271 242 236 239 223 238 243 241 240 240 238 238 235
287 289 292 295 296 298 298 299 300 300 290 296 303 305 306 304 301 300 298 299 293 289 284 281 279 275 270 243 238 235 231 235 245 239 239 239 238 236
284 287 288 291 293 295 297 297 298 299 293 297 298 306 303 303 304 300 299 299 298 293 290 285 280 277 274 265 255 235 240 239 235 239 239 238 238 239
286 286 287 291 291 293 295 295 296 297 299 298 303 306 307 303 301 304 300 298 298 298 292 289 286 283 279 276 276 267 236 237 236 239 239 238 237 239
286 287 289 292 291 293 294 295 297 301 301 301 301 301 299 306 303 300 304 301 298 299 300 290 285 283 280 276 279 270 259 237 230 232 239 237 240 237
285 287 289 293 294 293 297 301 304 302 301 297 297 295 294 296 299 301 303 305 304 302 297 297 290 286 287 280 277 274 266 263 247 233 235 238 237 239
291 292 292 291 286 287 288 287 288 287 287 285 285 287 286 288 285 295 296 295 295 301 303 303 300 285 282 278 277 274 266 264 264 236 233 241 239 237
288 288 287 286 285 283 281 279 279 281 283 282 282 283 285 285 286 283 287 289 290 281 288 285 284 286 286 285 283 281 275 267 254 256 232 232 240 234
281 285 288 288 284 282 286 282 279 277 274 278 280 280 283 285 287 285 280 287 288 293 290 286 292 292 292 290 291 286 279 273 263 253 258 243 238 242
280 285 289 291 291 288 289 289 290 291 291 291 287 289 290 290 288 288 288 285 284 283 282 277 294 293 296 292 291 290 285 278 273 259 253 262 251 229
286 288 291 291 291 285 283 284 286 288 289 284 282 281 281 281 280 283 280 280 277 285 289 274 286 284 284 287 289 293 295 287 276 262 259 261 267 231
291 293 289 283 284 283 281 285 286 286 289 291 291 289 289 290 285 275 272 270 270 276 277 275 279 279 283 284 288 285 248 243 244 241 253 254 261 256
290 294 293 289 284 284 283 281 280 286 288 287 292 292 291 293 286 283 280 277 271 270 278 275 277 276 271 278 278 276 268 274 277 268 254 258 261 266
285 288 288 288 288 285 285 287 288 291 293 295 291 290 291 289 286 280 276 274 271 270 281 276 269 271 271 276 275 278 276 277 282 278 273 261 261 249
288 291 290 288 288 286 288 292 294 288 288 292 294 294 294 294 293 288 284 278 272 271 269 270 266 269 266 267 271 272 275 274 277 281 281 275 264 257
302 301 297 292 289 288 292 294 298 300 299 293 291 294 296 295 292 291 285 282 278 278 277 271 267 265 264 264 266 269 266 263 271 269 269 266 258 255
296 295 294 286 289 299 299 299 300 304 304 304 301 299 297 297 294 293 283 280 273 273 276 278 274 269 265 263 263 262 264 265 265 266 268 269 274 267
294 290 284 300 299 301 304 302 303 307 307 309 305 302 298 294 290 287 281 274 271 271 271 272 272 271 269 266 258 259 259 257 258 259 260 264 268 269
286 290 294 295 297 303 308 306 305 307 308 308 307 305 303 296 286 282 280 275 271 269 269 270 267 263 263 260 266 253 256 258 258 259 259 258 265 269
286 288 292 300 306 309 308 307 305 306 306 308 306 305 303 294 287 283 280 274 272 271 269 267 262 258 254 256 265 267 259 260 258 258 257 262 265 270
298 295 301 307 310 310 310 307 306 306 307 306 304 300 298 293 285 282 279 275 273 269 266 264 266 268 266 262 260 262 263 255 251 248 256 256 258 260
302 301 306 312 315 316 316 313 310 311 311 311 309 305 301 294 283 279 275 270 268 266 264 266 267 261 256 246 252 258 262 257 254 252 246 246 248 244
306 306 310 316 327 327 325 322 317 316 316 313 309 306 301 290 287 279 273 270 266 262 261 260 257 255 250 246 251 255 256 253 251 248 247 249 244 245
Height
1520 1518 1515 1513 1511 1508 1505 1502 1498 1489 1484 1483 1484 1482 1481 1479 1475 1472 1469 1470 1471 1471 1469 1466 1465 1466 1466 1469 1472 1473 1487 1491 1496 1500 1504 1508 1513 1518
1513 1511 1509 1507 1505 1503 1501 1498 1494 1489 1479 1481 1478 1476 1473 1470 1469 1466 1463 1461 1462 1461 1461 1459 1457 1455 1455 1455 1460 1463 1469 1477 1482 1487 1492 1496 1501 1507
1506 1504 1502 1500 1498 1496 1494 1491 1487 1485 1476 1470 1470 1468 1467 1462 1458 1458 1454 1450 1448 1450 1451 1450 1446 1445 1443 1444 1447 1451 1457 1459 1466 1473 1479 1484 1489 1494
1498 1496 1494 1492 1490 1488 1487 1484 1480 1478 1473 1463 1463 1460 1458 1457 1451 1446 1445 1442 1439 1438 1440 1439 1436 1434 1433 1433 1436 1437 1441 1446 1451 1456 1463 1469 1476 1481
1490 1488 1486 1484 1481 1480 1479 1476 1472 1470 1467 1460 1453 1454 1451 1449 1443 1439 1435 1432 1430 1429 1427 1427 1425 1423 1423 1424 1425 1424 1425 1429 1435 1440 1447 1456 1462 1468
1482 1480 1477 1475 1473 1472 1470 1467 1464 1462 1459 1455 1448 1444 1444 1441 1437 1432 1425 1424 1421 1421 1419 1416 1415 1412 1411 1411 1414 1413 1412 1417 1419 1426 1432 1439 1447 1453
1472 1471 1469 1468 1468 1467 1465 1461 1459 1455 1452 1449 1443 1437 1435 1434 1432 1429 1421 1415 1413 1415 1409 1406 1404 1402 1400 1400 1401 1400 1398 1403 1407 1407 1412 1423 1430 1437
1465 1464 1462 1460 1458 1456 1455 1454 1453 1448 1444 1441 1436 1431 1426 1426 1424 1421 1417 1408 1400 1408 1403 1395 1397 1391 1392 1389 1387 1383 1384 1388 1395 1395 1395 1402 1414 1420
1458 1455 1452 1450 1449 1446 1443 1441 1438 1436 1435 1432 1427 1421 1416 1414 1413 1409 1407 1402 1393 1390 1390 1381 1383 1375 1375 1373 1372 1370 1374 1374 1379 1379 1383 1386 1392 1400
1449 1446 1443 1440 1438 1436 1433 1430 1426 1423 1421 1420 1415 1409 1407 1404 1403 1400 1396 1390 1383 1379 1382 1370 1372 1364 1364 1362 1364 1363 1362 1364 1363 1362 1370 1375 1377 1380
1440 1437 1435 1431 1428 1429 1426 1421 1417 1412 1411 1409 1406 1402 1399 1395 1394 1391 1385 1380 1374 1368 1371 1364 1361 1357 1357 1353 1353 1352 1349 1345 1346 1351 1355 1362 1364 1362
1431 1428 1426 1425 1422 1420 1417 1413 1407 1401 1400 1395 1390 1386 1384 1380 1379 1379 1375 1371 1369 1361 1357 1360 1352 1353 1343 1343 1342 1341 1340 1336 1339 1339 1342 1350 1348 1347
1422 1418 1416 1414 1412 1409 1407 1403 1397 1393 1387 1384 1378 1375 1372 1369 1366 1365 1363 1361 1356 1347 1343 1350 1343 1341 1337 1331 1330 1331 1331 1327 1325 1325 1328 1331 1334 1334
1413 1409 1406 1404 1401 1398 1395 1391 1387 1383 1377 1373 1368 1363 1360 1355 1352 1351 1349 1347 1342 1336 1336 1338 1334 1331 1327 1321 1318 1319 1316 1316 1315 1308 1311 1313 1313 1317
1405 1401 1398 1395 1392 1388 1384 1381 1379 1373 1368 1363 1356 1351 1347 1343 1340 1337 1334 1331 1328 1325 1323 1323 1321 1317 1315 1309 1305 1305 1307 1303 1304 1297 1302 1296 1301 1303
1395 1392 1388 1385 1382 1378 1375 1371 1367 1363 1358 1352 1346 1341 1336 1332 1328 1325 1320 1318 1315 1308 1306 1306 1306 1304 1300 1298 1297 1293 1294 1292 1291 1291 1289 1290 1289 1289
1387 1383 1379 1376 1371 1369 1364 1361 1357 1352 1347 1342 1336 1330 1325 1321 1315 1313 1309 1306 1303 1296 1290 1290 1291 1290 1287 1286 1283 1282 1281 1280 1281 1282 1283 1279 1275 1270
1378 1374 1369 1367 1363 1360 1355 1350 1346 1341 1337 1331 1326 1320 1315 1310 1304 1301 1298 1295 1290 1285 1279 1278 1278 1277 1273 1267 1270 1265 1267 1267 1270 1271 1270 1263 1260 1267
1368 1365 1362 1359 1355 1351 1346 1341 1335 1331 1326 1320 1315 1309 1303 1298 1294 1288 1285 1281 1276 1272 1266 1265 1266 1265 1260 1250 1244 1254 1252 1252 1255 1255 1253 1253 1245 1250
1361 1357 1354 1350 1346 1341 1336 1330 1325 1320 1314 1309 1303 1297 1291 1285 1280 1274 1271 1267 1263 1257 1251 1250 1250 1249 1246 1234 1236 1237 1242 1243 1244 1243 1242 1238 1235 1245
1352 1348 1345 1341 1337 1332 1326 1320 1314 1308 1303 1296 1290 1284 1277 1271 1264 1259 1254 1252 1249 1244 1236 1232 1230 1232 1229 1230 1223 1214 1217 1226 1228 1231 1231 1228 1229 1234
1344 1340 1337 1333 1328 1322 1316 1309 1303 1297 1290 1283 1275 1268 1262 1256 1248 1242 1237 1233 1228 1223 1216 1213 1215 1216 1214 1211 1201 1202 1203 1211 1213 1214 1218 1218 1221 1219
1336 1333 1329 1325 1319 1313 1306 1299 1292 1283 1276 1268 1260 1252 1245 1236 1229 1222 1216 1211 1206 1201 1197 1194 1195 1196 1193 1190 1188 1188 1190 1194 1199 1201 1200 1200 1202 1205